| time (UTC) | temp C | wind direction | speed KPH | gust KPH | rain 1hr cm | rain 24hr cm | rain mn cm | humidity % | barometer mb |
| 20260503053027 | 26 | 117 | 9.7 | 19.3 | 0.00 | 0.00 | 0.00 | 27 | 1013.9 |
| 20260503052523 | 26 | 113 | 8.0 | 19.3 | 0.00 | 0.00 | 0.00 | 27 | 1013.9 |
| 20260503052018 | 26 | 97 | 6.4 | 19.3 | 0.00 | 0.00 | 0.00 | 27 | 1014.0 |
| 20260503051518 | 26 | 120 | 4.8 | 20.9 | 0.00 | 0.00 | 0.00 | 27 | 1014.1 |
| 20260503051013 | 26 | 76 | 9.7 | 22.5 | 0.00 | 0.00 | 0.00 | 27 | 1014.0 |
| 20260503050528 | 26 | 87 | 8.0 | 20.9 | 0.00 | 0.00 | 0.00 | 27 | 1013.8 |
| 20260503050021 | 26 | 53 | 6.4 | 20.9 | 0.00 | 0.00 | 0.00 | 27 | 1013.9 |
| 20260503045517 | 26 | 89 | 9.7 | 22.5 | 0.00 | 0.00 | 0.00 | 26 | 1013.8 |
| 20260503045013 | 26 | 103 | 12.9 | 22.5 | 0.00 | 0.00 | 0.00 | 26 | 1013.7 |
| 20260503044528 | 26 | 102 | 11.3 | 17.7 | 0.00 | 0.00 | 0.00 | 26 | 1013.8 |
| 20260503044024 | 26 | 133 | 8.0 | 22.5 | 0.00 | 0.00 | 0.00 | 26 | 1013.7 |
| 20260503043524 | 26 | 70 | 8.0 | 22.5 | 0.00 | 0.00 | 0.00 | 26 | 1013.7 |
| 20260503043020 | 26 | 94 | 6.4 | 19.3 | 0.00 | 0.00 | 0.00 | 26 | 1013.7 |
| 20260503042515 | 26 | 99 | 9.7 | 19.3 | 0.00 | 0.00 | 0.00 | 25 | 1013.6 |
| 20260503042011 | 26 | 75 | 6.4 | 17.7 | 0.00 | 0.00 | 0.00 | 25 | 1013.4 |
| 20260503041528 | 26 | 88 | 9.7 | 27.4 | 0.00 | 0.00 | 0.00 | 25 | 1013.3 |
| 20260503041024 | 27 | 91 | 12.9 | 27.4 | 0.00 | 0.00 | 0.00 | 25 | 1013.1 |
| 20260503040521 | 27 | 102 | 11.3 | 22.5 | 0.00 | 0.00 | 0.00 | 25 | 1013.1 |
| 20260503040020 | 27 | 78 | 3.2 | 25.7 | 0.00 | 0.00 | 0.00 | 24 | 1013.0 |
| 20260503035516 | 27 | 134 | 9.7 | 25.7 | 0.00 | 0.00 | 0.00 | 25 | 1013.0 |
| 20260503035011 | 27 | 86 | 6.4 | 20.9 | 0.00 | 0.00 | 0.00 | 24 | 1012.8 |
| 20260503034527 | 27 | 77 | 8.0 | 20.9 | 0.00 | 0.00 | 0.00 | 24 | 1012.8 |
| 20260503034023 | 27 | 74 | 9.7 | 20.9 | 0.00 | 0.00 | 0.00 | 24 | 1012.8 |
| 20260503033519 | 27 | 84 | 6.4 | 24.1 | 0.00 | 0.00 | 0.00 | 24 | 1012.8 |
| 20260503033014 | 27 | 92 | 11.3 | 24.1 | 0.00 | 0.00 | 0.00 | 24 | 1012.9 |
| 20260503032514 | 27 | 82 | 4.8 | 19.3 | 0.00 | 0.00 | 0.00 | 23 | 1012.8 |
| 20260503032030 | 27 | 75 | 6.4 | 14.5 | 0.00 | 0.00 | 0.00 | 23 | 1012.8 |
| 20260503031525 | 27 | 84 | 3.2 | 14.5 | 0.00 | 0.00 | 0.00 | 23 | 1012.6 |
| 20260503031021 | 27 | 97 | 4.8 | 17.7 | 0.00 | 0.00 | 0.00 | 23 | 1012.6 |
| 20260503030517 | 27 | 65 | 6.4 | 17.7 | 0.00 | 0.00 | 0.00 | 23 | 1012.5 |
| 20260503030032 | 27 | 73 | 3.2 | 12.9 | 0.00 | 0.00 | 0.00 | 22 | 1012.5 |
| 20260503025526 | 28 | 109 | 3.2 | 12.9 | 0.00 | 0.00 | 0.00 | 22 | 1012.4 |
| 20260503025026 | 28 | 69 | 1.6 | 11.3 | 0.00 | 0.00 | 0.00 | 22 | 1012.4 |
| 20260503024522 | 28 | 75 | 1.6 | 20.9 | 0.00 | 0.00 | 0.00 | 22 | 1012.3 |
| 20260503024017 | 28 | 93 | 8.0 | 20.9 | 0.00 | 0.00 | 0.00 | 21 | 1012.1 |
| 20260503023533 | 28 | 113 | 8.0 | 17.7 | 0.00 | 0.00 | 0.00 | 21 | 1012.2 |
| 20260503023029 | 28 | 123 | 8.0 | 12.9 | 0.00 | 0.00 | 0.00 | 22 | 1012.1 |
| 20260503022525 | 28 | 100 | 4.8 | 12.9 | 0.00 | 0.00 | 0.00 | 21 | 1012.1 |
| 20260503022021 | 28 | 88 | 4.8 | 16.1 | 0.00 | 0.00 | 0.00 | 21 | 1012.1 |
| 20260503021519 | 28 | 116 | 8.0 | 16.1 | 0.00 | 0.00 | 0.00 | 21 | 1012.1 |
| 20260503021015 | 28 | 88 | 3.2 | 11.3 | 0.00 | 0.00 | 0.00 | 21 | 1012.0 |
| 20260503020532 | 28 | 94 | 3.2 | 14.5 | 0.00 | 0.00 | 0.00 | 20 | 1012.0 |
| 20260503020026 | 28 | 98 | 4.8 | 14.5 | 0.00 | 0.00 | 0.00 | 20 | 1012.1 |
| 20260503015522 | 29 | 109 | 3.2 | 11.3 | 0.00 | 0.00 | 0.00 | 20 | 1012.1 |
| 20260503015019 | 29 | 93 | 4.8 | 14.5 | 0.00 | 0.00 | 0.00 | 20 | 1012.2 |
| 20260503014515 | 29 | 93 | 4.8 | 14.5 | 0.00 | 0.00 | 0.00 | 20 | 1012.2 |
| 20260503014015 | 29 | 88 | 3.2 | 11.3 | 0.00 | 0.00 | 0.00 | 20 | 1012.3 |
| 20260503013530 | 29 | 81 | 4.8 | 14.5 | 0.00 | 0.00 | 0.00 | 20 | 1012.2 |
| 20260503013026 | 29 | 110 | 6.4 | 14.5 | 0.00 | 0.00 | 0.00 | 20 | 1012.2 |
| 20260503012522 | 29 | 79 | 4.8 | 12.9 | 0.00 | 0.00 | 0.00 | 19 | 1012.2 |
| 20260503012018 | 29 | 96 | 4.8 | 12.9 | 0.00 | 0.00 | 0.00 | 18 | 1012.2 |
| 20260503011534 | 29 | 65 | 1.6 | 4.8 | 0.00 | 0.00 | 0.00 | 18 | 1012.3 |
| 20260503011029 | 29 | 114 | 0.0 | 4.8 | 0.00 | 0.00 | 0.00 | 18 | 1012.3 |
| 20260503010525 | 30 | 115 | 0.0 | 4.8 | 0.00 | 0.00 | 0.00 | 18 | 1012.3 |
| 20260503010024 | 30 | 33 | 0.0 | 4.8 | 0.00 | 0.00 | 0.00 | 18 | 1012.3 |
| 20260503005520 | 30 | 100 | 0.0 | 1.6 | 0.00 | 0.00 | 0.00 | 18 | 1012.4 |
| 20260503005015 | 30 | 100 | 0.0 | 6.4 | 0.00 | 0.00 | 0.00 | 18 | 1012.3 |
| 20260503004531 | 30 | 100 | 1.6 | 9.7 | 0.00 | 0.00 | 0.00 | 18 | 1012.4 |
| 20260503004027 | 30 | 145 | 3.2 | 6.4 | 0.00 | 0.00 | 0.00 | 18 | 1012.3 |
| 20260503003522 | 30 | 102 | 1.6 | 8.0 | 0.00 | 0.00 | 0.00 | 18 | 1012.1 |
| 20260503003019 | 30 | 95 | 1.6 | 9.7 | 0.00 | 0.00 | 0.00 | 18 | 1012.1 |
| 20260503002520 | 30 | 124 | 6.4 | 12.9 | 0.00 | 0.00 | 0.00 | 18 | 1012.2 |
| 20260503002016 | 30 | 78 | 6.4 | 14.5 | 0.00 | 0.00 | 0.00 | 18 | 1012.1 |
| 20260503001533 | 30 | 63 | 4.8 | 14.5 | 0.00 | 0.00 | 0.00 | 18 | 1012.2 |
| 20260503001030 | 30 | 102 | 3.2 | 8.0 | 0.00 | 0.00 | 0.00 | 17 | 1012.2 |
| 20260503000525 | 30 | 333 | 1.6 | 11.3 | 0.00 | 0.00 | 0.00 | 18 | 1012.3 |
| 20260503000020 | 30 | 69 | 0.0 | 11.3 | 0.00 | 0.00 | 0.00 | 18 | 1012.2 |
| 20260502235517 | 30 | 173 | 0.0 | 16.1 | 0.00 | 0.00 | 0.00 | 17 | 1012.2 |
| 20260502235018 | 30 | 127 | 6.4 | 16.1 | 0.00 | 0.00 | 0.00 | 17 | 1012.3 |
| 20260502234515 | 30 | 82 | 0.0 | 8.0 | 0.00 | 0.00 | 0.00 | 17 | 1012.2 |
| 20260502210516 | 31 | 62 | 3.2 | 115.9 | 0.00 | 0.00 | 0.00 | 12 | 1014.0 |
| 20260502210031 | 31 | 276 | 3.2 | 14.5 | 0.00 | 0.00 | 0.00 | 11 | 1014.0 |
| 20260502205527 | 32 | 244 | 3.2 | 14.5 | 0.00 | 0.00 | 0.00 | 11 | 1014.1 |
| 20260502205023 | 32 | 275 | 4.8 | 12.9 | 0.00 | 0.00 | 0.00 | 11 | 1014.2 |
| 20260502204518 | 32 | 288 | 8.0 | 12.9 | 0.00 | 0.00 | 0.00 | 12 | 1014.5 |
| 20260502204018 | 30 | 113 | 6.4 | 12.9 | 0.00 | 0.00 | 0.00 | 12 | 1014.5 |
| 20260502203514 | 30 | 118 | 4.8 | 14.5 | 0.00 | 0.00 | 0.00 | 12 | 1014.6 |
| 20260502203030 | 30 | 90 | 3.2 | 17.7 | 0.00 | 0.00 | 0.00 | 11 | 1014.8 |
| 20260502202525 | 31 | 63 | 3.2 | 17.7 | 0.00 | 0.00 | 0.00 | 11 | 1014.8 |
| 20260502202021 | 30 | 65 | 4.8 | 14.5 | 0.00 | 0.00 | 0.00 | 12 | 1014.7 |
| 20260502201517 | 31 | 108 | 6.4 | 14.5 | 0.00 | 0.00 | 0.00 | 14 | 1014.9 |
| 20260502201013 | 30 | 92 | 6.4 | 17.7 | 0.00 | 0.00 | 0.00 | 12 | 1015.0 |
| 20260502200533 | 31 | 114 | 8.0 | 17.7 | 0.00 | 0.00 | 0.00 | 12 | 1015.0 |
| 20260502200028 | 30 | 247 | 9.7 | 17.7 | 0.00 | 0.00 | 0.00 | 14 | 1015.0 |
| 20260502195524 | 30 | 127 | 1.6 | 20.9 | 0.00 | 0.00 | 0.00 | 15 | 1015.2 |
| 20260502195019 | 30 | 141 | 12.9 | 24.1 | 0.00 | 0.00 | 0.00 | 15 | 1015.2 |
| 20260502194515 | 30 | 117 | 9.7 | 24.1 | 0.00 | 0.00 | 0.00 | 16 | 1015.2 |
| 20260502194032 | 29 | 212 | 6.4 | 20.9 | 0.00 | 0.00 | 0.00 | 16 | 1015.3 |
| 20260502193528 | 28 | 107 | 11.3 | 20.9 | 0.00 | 0.00 | 0.00 | 17 | 1015.5 |
| 20260502193027 | 30 | 206 | 3.2 | 19.3 | 0.00 | 0.00 | 0.00 | 16 | 1015.4 |
| 20260502192524 | 29 | 140 | 6.4 | 19.3 | 0.00 | 0.00 | 0.00 | 18 | 1015.3 |
| 20260502192021 | 29 | 191 | 6.4 | 22.5 | 0.00 | 0.00 | 0.00 | 18 | 1015.5 |
| 20260502191517 | 28 | 174 | 8.0 | 24.1 | 0.00 | 0.00 | 0.00 | 19 | 1015.5 |
| 20260502191013 | 28 | 135 | 6.4 | 24.1 | 0.00 | 0.00 | 0.00 | 20 | 1015.5 |
| 20260502190529 | 28 | 94 | 9.7 | 20.9 | 0.00 | 0.00 | 0.00 | 21 | 1015.6 |
| 20260502190025 | 28 | 97 | 8.0 | 20.9 | 0.00 | 0.00 | 0.00 | 21 | 1015.7 |
| 20260502185525 | 28 | 155 | 6.4 | 20.9 | 0.00 | 0.00 | 0.00 | 22 | 1015.9 |
| 20260502185020 | 28 | 123 | 9.7 | 20.9 | 0.00 | 0.00 | 0.00 | 22 | 1015.9 |
| 20260502184517 | 28 | 125 | 3.2 | 25.7 | 0.00 | 0.00 | 0.00 | 20 | 1015.9 |
| 20260502184014 | 27 | 147 | 14.5 | 22.5 | 0.00 | 0.00 | 0.00 | 21 | 1016.0 |
| 20260502183531 | 28 | 106 | 11.3 | 20.9 | 0.00 | 0.00 | 0.00 | 23 | 1016.1 |
| 20260502183027 | 28 | 131 | 11.3 | 25.7 | 0.00 | 0.00 | 0.00 | 23 | 1016.2 |
| 20260502182522 | 28 | 135 | 12.9 | 25.7 | 0.00 | 0.00 | 0.00 | 24 | 1016.4 |
| 20260502182023 | 28 | 102 | 8.0 | 24.1 | 0.00 | 0.00 | 0.00 | 24 | 1016.4 |
| 20260502181519 | 27 | 87 | 8.0 | 24.1 | 0.00 | 0.00 | 0.00 | 26 | 1016.4 |
| 20260502181015 | 27 | 131 | 14.5 | 24.1 | 0.00 | 0.00 | 0.00 | 26 | 1016.4 |
| 20260502180532 | 27 | 103 | 12.9 | 29.0 | 0.00 | 0.00 | 0.00 | 26 | 1016.6 |
| 20260502164027 | 26 | 81 | 11.3 | 20.9 | 0.00 | 0.00 | 0.00 | 30 | 1016.8 |
| 20260502163522 | 26 | 83 | 11.3 | 20.9 | 0.00 | 0.00 | 0.00 | 30 | 1016.9 |
| 20260502163018 | 25 | 123 | 14.5 | 27.4 | 0.00 | 0.00 | 0.00 | 31 | 1016.9 |
| 20260502162518 | 25 | 98 | 11.3 | 27.4 | 0.00 | 0.00 | 0.00 | 31 | 1016.9 |
| 20260502162014 | 25 | 111 | 14.5 | 29.0 | 0.00 | 0.00 | 0.00 | 32 | 1016.9 |
| 20260502161529 | 25 | 59 | 12.9 | 29.0 | 0.00 | 0.00 | 0.00 | 33 | 1016.9 |
| 20260502161025 | 25 | 88 | 12.9 | 24.1 | 0.00 | 0.00 | 0.00 | 33 | 1016.8 |
| 20260502160521 | 24 | 101 | 16.1 | 25.7 | 0.00 | 0.00 | 0.00 | 33 | 1016.8 |
| 20260502151526 | 23 | 131 | 19.3 | 30.6 | 0.00 | 0.00 | 0.00 | 36 | 1016.7 |
| 20260502151021 | 23 | 71 | 14.5 | 30.6 | 0.00 | 0.00 | 0.00 | 36 | 1016.7 |
| 20260502150517 | 22 | 110 | 17.7 | 30.6 | 0.00 | 0.00 | 0.00 | 36 | 1016.7 |
| 20260502130526 | 18 | 203 | 6.4 | 16.1 | 0.00 | 0.00 | 0.00 | 43 | 1015.1 |
| 20260502123523 | 17 | 217 | 6.4 | 11.3 | 0.00 | 0.00 | 0.00 | 40 | 1014.6 |
| 20260502123019 | 16 | 214 | 6.4 | 9.7 | 0.00 | 0.00 | 0.00 | 39 | 1014.7 |
| 20260502122515 | 16 | 209 | 3.2 | 8.0 | 0.00 | 0.00 | 0.00 | 38 | 1014.7 |
| 20260502122030 | 16 | 209 | 4.8 | 8.0 | 0.00 | 0.00 | 0.00 | 37 | 1014.7 |
| 20260502121530 | 16 | 209 | 3.2 | 8.0 | 0.00 | 0.00 | 0.00 | 37 | 1014.7 |
| 20260502121026 | 17 | 209 | 3.2 | 8.0 | 0.00 | 0.00 | 0.00 | 36 | 1014.7 |
| 20260502120522 | 17 | 249 | 3.2 | 11.3 | 0.00 | 0.00 | 0.00 | 36 | 1014.7 |
| 20260502115532 | 17 | 254 | 3.2 | 6.4 | 0.00 | 0.00 | 0.00 | 36 | 1014.5 |
| 20260502115025 | 17 | 254 | 1.6 | 6.4 | 0.00 | 0.00 | 0.00 | 35 | 1014.5 |
| 20260502114521 | 16 | 256 | 3.2 | 6.4 | 0.00 | 0.00 | 0.00 | 36 | 1014.5 |
| 20260502114020 | 16 | 256 | 1.6 | 4.8 | 0.00 | 0.00 | 0.00 | 37 | 1014.5 |
| 20260502113516 | 16 | 256 | 3.2 | 6.4 | 0.00 | 0.00 | 0.00 | 37 | 1014.3 |
| 20260502113013 | 16 | 256 | 3.2 | 9.7 | 0.00 | 0.00 | 0.00 | 37 | 1014.3 |
| 20260502112529 | 16 | 256 | 4.8 | 11.3 | 0.00 | 0.00 | 0.00 | 36 | 1014.3 |
| 20260502112024 | 16 | 257 | 6.4 | 11.3 | 0.00 | 0.00 | 0.00 | 35 | 1014.4 |
| 20260502111520 | 16 | 305 | 3.2 | 8.0 | 0.00 | 0.00 | 0.00 | 35 | 1014.4 |
| 20260502111016 | 16 | 308 | 1.6 | 6.4 | 0.00 | 0.00 | 0.00 | 35 | 1014.4 |
| 20260502110516 | 16 | 308 | 1.6 | 3.2 | 0.00 | 0.00 | 0.00 | 35 | 1014.5 |
| 20260502110030 | 16 | 308 | 1.6 | 3.2 | 0.00 | 0.00 | 0.00 | 34 | 1014.5 |
| 20260502105526 | 16 | 308 | 1.6 | 3.2 | 0.00 | 0.00 | 0.00 | 34 | 1014.7 |
| 20260502105022 | 16 | 308 | 1.6 | 4.8 | 0.00 | 0.00 | 0.00 | 35 | 1014.5 |
| 20260502104517 | 15 | 308 | 1.6 | 4.8 | 0.00 | 0.00 | 0.00 | 35 | 1014.7 |
| 20260502104013 | 15 | 308 | 3.2 | 6.4 | 0.00 | 0.00 | 0.00 | 35 | 1014.7 |
| 20260502103529 | 15 | 308 | 3.2 | 6.4 | 0.00 | 0.00 | 0.00 | 36 | 1014.6 |
| 20260502103025 | 15 | 308 | 3.2 | 6.4 | 0.00 | 0.00 | 0.00 | 36 | 1014.6 |
| 20260502102525 | 15 | 308 | 3.2 | 6.4 | 0.00 | 0.00 | 0.00 | 36 | 1014.6 |
| 20260502102020 | 16 | 308 | 3.2 | 6.4 | 0.00 | 0.00 | 0.00 | 35 | 1014.5 |
| 20260502101517 | 16 | 309 | 0.0 | 8.0 | 0.00 | 0.00 | 0.00 | 35 | 1014.5 |
| 20260502101013 | 16 | 309 | 3.2 | 8.0 | 0.00 | 0.00 | 0.00 | 35 | 1014.3 |
| 20260502100528 | 16 | 267 | 1.6 | 6.4 | 0.00 | 0.00 | 0.00 | 35 | 1014.3 |
| 20260502091515 | 17 | 281 | 0.0 | 3.2 | 0.00 | 0.00 | 0.00 | 33 | 1014.0 |
| 20260502091030 | 17 | 281 | 1.6 | 3.2 | 0.00 | 0.00 | 0.00 | 32 | 1014.0 |
| 20260502090526 | 17 | 281 | 0.0 | 4.8 | 0.00 | 0.00 | 0.00 | 32 | 1014.0 |
| 20260502071523 | 20 | 281 | 3.2 | 4.8 | 0.00 | 0.00 | 0.00 | 26 | 1014.1 |
| 20260502071019 | 20 | 281 | 3.2 | 4.8 | 0.00 | 0.00 | 0.00 | 26 | 1014.1 |
| 20260502070514 | 20 | 281 | 3.2 | 6.4 | 0.00 | 0.00 | 0.00 | 26 | 1014.1 |
| 20260502070029 | 20 | 281 | 4.8 | 6.4 | 0.00 | 0.00 | 0.00 | 27 | 1014.2 |
| 20260502065525 | 20 | 281 | 4.8 | 6.4 | 0.00 | 0.00 | 0.00 | 27 | 1014.3 |
| 20260502065025 | 20 | 281 | 4.8 | 6.4 | 0.00 | 0.00 | 0.00 | 27 | 1014.3 |
| 20260502064521 | 20 | 282 | 3.2 | 4.8 | 0.00 | 0.00 | 0.00 | 28 | 1014.2 |
| 20260502064017 | 20 | 282 | 3.2 | 4.8 | 0.00 | 0.00 | 0.00 | 27 | 1014.3 |
| 20260502063513 | 20 | 282 | 3.2 | 4.8 | 0.00 | 0.00 | 0.00 | 27 | 1014.2 |
| 20260502063029 | 20 | 282 | 3.2 | 4.8 | 0.00 | 0.00 | 0.00 | 26 | 1014.1 |
| 20260502062525 | 20 | 282 | 3.2 | 4.8 | 0.00 | 0.00 | 0.00 | 26 | 1014.1 |
| 20260502062020 | 21 | 282 | 3.2 | 6.4 | 0.00 | 0.00 | 0.00 | 26 | 1014.0 |
| 20260502061016 | 21 | 282 | 3.2 | 9.7 | 0.00 | 0.00 | 0.00 | 25 | 1013.9 |
| 20260502060532 | 21 | 283 | 4.8 | 9.7 | 0.00 | 0.00 | 0.00 | 25 | 1014.0 |
| 20260502060027 | 21 | 283 | 4.8 | 6.4 | 0.00 | 0.00 | 0.00 | 26 | 1013.9 |
| 20260502055523 | 21 | 284 | 3.2 | 4.8 | 0.00 | 0.00 | 0.00 | 26 | 1013.9 |
| 20260502055019 | 21 | 284 | 3.2 | 4.8 | 0.00 | 0.00 | 0.00 | 26 | 1013.8 |
| 20260502054514 | 21 | 284 | 3.2 | 4.8 | 0.00 | 0.00 | 0.00 | 26 | 1013.8 |
| 20260502054014 | 21 | 284 | 3.2 | 4.8 | 0.00 | 0.00 | 0.00 | 26 | 1013.8 |
| 20260502053530 | 21 | 284 | 3.2 | 4.8 | 0.00 | 0.00 | 0.00 | 26 | 1013.8 |